Content
SEND FEEDBACK

Daily
Averages
Monthly
Summary
Canada

KINGSTON, ONTARIO


Home > North America > Canada > Ontario
Elevation: 305 feet     Latitude: 44 13N     Longitude: 076 36W

WEATHER
 
SELECT A DAY
Number of Records: 126,058;   Date Range: 1/1/95 - 9/19/14
 
SHARE

PRINT THIS DATA

[ ← Previous Day ]
WEATHER ALMANAC - JANUARY 20, 2013
[ Next Day → ]
[ °C ]   °F
Weather ElementAverageHighLow
Temperature25.2 °F35.6 °F (7:00 am)12.2 °F (11:00 pm)
Dewpoint13.7 °F30.2 °F (6:45 am)-0.4 °F (10:00 pm)
Humidity62.3 %87 % (6:45 am)47 % (12:00 pm)
Barometer29.77 in30.09 in (11:00 pm)29.42 in (6:45 am)
Wind Speed21.9 mph34.5 mph (12:00 pm)
Wind Gust55.2 mph (11:00 am)
Weather ElementAverage
Visibility13.2 mi
Wind DirectionW (269.5 °)

Weather ElementTotal
Precipitation---
Heating Degree Days41.1 (Base 65)
Averaged from 21 records on January 20, 2013
WEATHER CONDITIONS BREAKOUT
WIND DIRECTION BREAKOUT
WEATHER BY HOUR - JANUARY 20, 2013
[ °C ]   °F
Local TimeTemperatureDewpointHumidityBarometerVisibilityWind DirectionWind SpeedGust SpeedPrecipitationEventsConditions
6:45 AM33.8 °F30.2 °F87 %29.42 in12.0 miWSW (240°)20.7 mph26.5 mphOvercast
7:00 AM35.6 °F30.2 °F81 %29.44 in12.0 miSW (230°)20.7 mph27.6 mphOvercast
8:00 AM35.6 °F26.6 °F70 %29.47 in15.0 miWSW (250°)23.0 mph41.4 mphMostly Cloudy
9:00 AM33.8 °F23.0 °F65 %29.51 in15.0 miWest (260°)24.2 mph46.0 mphScattered Clouds
9:48 AM32.0 °F23.0 °F69 %29.58 in2.0 miWest (260°)29.9 mph49.5 mphSnowLight Snow Showers
10:00 AM30.2 °F24.8 °F80 %29.61 in2.0 miWest (270°)24.2 mph46.0 mphSnowLight Snow Showers
10:06 AM30.2 °F24.8 °F80 %29.61 in10.0 miWest (260°)27.6 mph43.7 mphSnowLight Snow Grains
10:23 AM30.2 °F21.2 °F69 %29.62 in15.0 miWest (260°)28.8 mph47.2 mphScattered Clouds
11:00 AM30.2 °F17.6 °F60 %29.66 in15.0 miWest (260°)31.1 mph55.2 mphScattered Clouds
12:00 PM30.2 °F12.2 °F47 %29.68 in15.0 miWest (260°)34.5 mph46.0 mphMostly Cloudy
1:00 PM28.4 °F15.8 °F59 %29.73 in15.0 miWest (270°)24.2 mph42.6 mphMostly Cloudy
2:00 PM26.6 °F8.6 °F47 %29.78 in15.0 miWest (280°)24.2 mph36.8 mphScattered Clouds
3:00 PM23.0 °F6.8 °F50 %29.85 in15.0 miWest (270°)27.6 mph41.4 mphPartly Cloudy
4:00 PM21.2 °F5.0 °F50 %29.91 in15.0 miWest (280°)21.9 mph32.2 mphPartly Cloudy
5:00 PM17.6 °F3.2 °F53 %29.94 in15.0 miWest (280°)16.1 mph23.0 mphPartly Cloudy
6:00 PM17.6 °F3.2 °F53 %29.99 in15.0 miWest (280°)18.4 mph27.6 mphPartly Cloudy
7:00 PM17.6 °F3.2 °F53 %30.02 in15.0 miWest (280°)16.1 mph28.8 mphScattered Clouds
8:00 PM15.8 °F3.2 °F58 %30.04 in15.0 miWNW (290°)13.8 mph29.9 mphPartly Cloudy
9:00 PM14.0 °F3.2 °F62 %30.06 in15.0 miWNW (300°)9.2 mphPartly Cloudy
10:00 PM14.0 °F-0.4 °F53 %30.08 in15.0 miWNW (290°)13.8 mphPartly Cloudy
11:00 PM12.2 °F1.4 °F62 %30.09 in15.0 miWNW (290°)9.2 mphPartly Cloudy
Hourly data recorded from CYGK, located miles away from Kingston, Ontario







STORIES FROM OUR PARTNERS